LAGEOS 2

Last updated on Sun Dec 14 2025 00:03:38 GMT+0000 (Coordinated Universal Time)

1 22195U 92070B 25345.68875819 -.00000009 00000+0 00000+0 0 9996 2 22195 52.6763 25.1383 0137841 105.3560 22.7691 6.47293285783287
UTC large
Height (km)
Speed (km/s)
/
Latitude / Longitude
Inclination (degrees)
Orbital Period (minutes)
Azimuth
Elevation
Range (km)
Doppler Factor

Next 0 passes for location: London (51.5072 / 0.1276)

Sorry there are no passes over London.